This is the latest recevied weather packets stored in our database for station/object WB5LFS-1. If no packets are shown the sender has not sent any weather packets the latest 10 day(s).
| Time | Temp. | Humidity | Pressure | Rain* | Wind** | Luminosity | Snow |
|---|---|---|---|---|---|---|---|
| 1777837311 | 17.22° C | 32% | 1015.9 hPa | 0 mm | - | - | - |
| 1777836411 | 17.22° C | 37% | 1016.2 hPa | 0 mm | - | - | - |
| 1777835511 | 16.67° C | 34% | 1016.3 hPa | 0 mm | - | - | - |
| 1777834611 | 16.67° C | 34% | 1016.5 hPa | 0 mm | - | - | - |
| 1777833711 | 16.11° C | 32% | 1016.7 hPa | 0 mm | - | - | - |
| 1777832811 | 15.56° C | 37% | 1016.9 hPa | 0 mm | - | - | - |
| 1777831911 | 15.56° C | 41% | 1016.7 hPa | 0 mm | - | - | - |
| 1777831011 | 15.56° C | 35% | 1017 hPa | 0 mm | - | - | - |
| 1777830111 | 15° C | 35% | 1016.9 hPa | 0 mm | - | - | - |
| 1777829211 | 15° C | 35% | 1017 hPa | 0 mm | - | - | - |
| 1777828311 | 15° C | 36% | 1017.3 hPa | 0 mm | - | - | - |
| 1777827412 | 14.44° C | 38% | 1017.4 hPa | 0 mm | - | - | - |
| 1777826512 | 14.44° C | 36% | 1017.5 hPa | 0 mm | - | - | - |
| 1777825611 | 14.44° C | 37% | 1017.6 hPa | 0 mm | - | - | - |
| 1777824712 | 13.89° C | 39% | 1018 hPa | 0 mm | - | - | - |
| 1777823812 | 13.89° C | 37% | 1018 hPa | 0 mm | - | - | - |
| 1777822912 | 13.33° C | 37% | 1018.1 hPa | 0 mm | - | - | - |
| 1777822012 | 13.33° C | 38% | 1018 hPa | 0 mm | - | - | - |
| 1777821112 | 12.78° C | 38% | 1018 hPa | 0 mm | - | - | - |
| 1777820212 | 12.78° C | 39% | 1018.1 hPa | 0 mm | - | - | - |
| 1777819312 | 12.78° C | 38% | 1017.9 hPa | 0 mm | - | - | - |
| 1777818412 | 12.22° C | 40% | 1018 hPa | 0 mm | - | - | - |
| 1777817512 | 12.22° C | 42% | 1017.9 hPa | 0 mm | - | - | - |
| 1777816612 | 11.67° C | 44% | 1018.1 hPa | 0 mm | - | - | - |
| 1777815712 | 11.67° C | 50% | 1017.9 hPa | 0 mm | - | - | - |
* Rain latest hour (hover to see other rain measurements)
** Current wind speed in m/s (hover to see current wind gust speed)